World > North America > United States > New York > North Ilion

Hourly North Ilion, NY Regional Weather

Feedback E-mail the Weather

Quick WX

North Ilion, NY Weather Maps

°F °C°F °C
North Ilion Weather Map
UTC Time: 8/8/2022, 19:19
Your Time:

North Ilion, NY Regional Weather

Expires:202208082000;;690416
ASUS41 KGYX 081910
RWRGYX
WEATHER ROUNDUP FOR MAINE AND NEW HAMPSHIRE
NATIONAL WEATHER SERVICE GRAY ME
300 PM EDT MON AUG 08 2022


MAZ007-012-024-CTZ003-RIZ002-NYZ038-NYZ072-082000-
SOUTHERN NEW ENGLAND AND NY
  
CITY           SKY/WX    TMP DP  RH WIND       PRES   REMARKS
BOSTON         MOSUNNY   97  68  38 SW18G28   29.88F HX 102           
WORCESTER      SUNNY     90  69  50 SW15G24   29.95F HX  94           
NANTUCKET      MOSUNNY   84  76  76 SW17G25   30.01F HX  93           
PROVIDENCE     MOSUNNY   94  73  50 SW14G24   29.93F HX 103           
HARTFORD       PTSUNNY   91  72  53 SW18G25   29.92F HX  98           
ALBANY         PTSUNNY   93  75  55 SE12      29.87F HX 104           
NEW YORK CITY  PTSUNNY   92  70  48 S16       29.93F HX  97           
$$


SKY/WX - Weather  TMP - Temperature  DP - Dew Point  RH - Humidity
WIND - Wind Direction/Speed PRES - Barometric Pressure VSB - Visibility
WCI - Wind Chill Index E13G22 Wind - East Wind 13 mph/Gusts of 22 mph

Trending Headlines

North Ilion Radar Loop



North Ilion Quick Facts


National Two Day Weather Forecast


E-mail the North Ilion Weather Forecast

Voice your opinion or tell us about page issues...